JBU890 KCMH-KBOS

Flight info

Callsign JBU890
Flight time 1h 23m
Altitude 35000
Route OWEBO HLG SLT J190 RKA PONCT JFUND2
Aircraft A21N/M-SDE2E3FGHIRWXY/LB1

Departure

Time 2026-05-08 23:40
Airport John Glenn Columbus International Airport (KCMH)

Arrival

Time 2026-05-09 01:03
Airport Boston Logan International Airport (KBOS)
Time Latitude Longitude Altitude Speed Heading
2026-05-08 23:22 39.99653 -82.88549 824 ft 0 kts 28°
2026-05-08 23:32 39.99649 -82.88552 824 ft 3 kts 28°
2026-05-08 23:32 39.99632 -82.88564 821 ft 3 kts 36°
2026-05-08 23:32 39.99618 -82.88579 823 ft 3 kts 39°
2026-05-08 23:32 39.99605 -82.88596 819 ft 3 kts 59°
2026-05-08 23:33 39.99598 -82.88618 817 ft 1 kts 94°
2026-05-08 23:35 39.99598 -82.88613 817 ft 2 kts 96°
2026-05-08 23:36 39.99594 -82.88572 821 ft 7 kts 96°
2026-05-08 23:36 39.99590 -82.88488 822 ft 12 kts 93°
2026-05-08 23:36 39.99591 -82.88375 821 ft 13 kts 72°
2026-05-08 23:36 39.99616 -82.88257 821 ft 14 kts 91°
2026-05-08 23:37 39.99609 -82.88133 823 ft 14 kts 95°
2026-05-08 23:37 39.99600 -82.88000 825 ft 15 kts 95°
2026-05-08 23:37 39.99592 -82.87865 826 ft 15 kts 94°
2026-05-08 23:37 39.99574 -82.87739 828 ft 14 kts 101°
2026-05-08 23:38 39.99564 -82.87598 827 ft 16 kts 94°
2026-05-08 23:38 39.99556 -82.87458 827 ft 15 kts 94°
2026-05-08 23:38 39.99540 -82.87318 822 ft 16 kts 123°
2026-05-08 23:38 39.99438 -82.87300 825 ft 16 kts 185°
2026-05-08 23:39 39.99325 -82.87315 823 ft 17 kts 187°
2026-05-08 23:39 39.99206 -82.87336 822 ft 16 kts 204°
2026-05-08 23:39 39.99170 -82.87446 822 ft 13 kts 272°
2026-05-08 23:39 39.99180 -82.87626 821 ft 41 kts 274°
2026-05-08 23:40 39.99215 -82.88261 826 ft 99 kts 274°
2026-05-08 23:40 39.99281 -82.89431 824 ft 157 kts 274°
2026-05-08 23:40 39.99373 -82.90943 1109 ft 174 kts 274°
2026-05-08 23:40 39.99476 -82.92558 1599 ft 179 kts 273°
2026-05-08 23:41 39.99575 -82.94206 2082 ft 194 kts 273°
2026-05-08 23:41 39.99683 -82.96067 2380 ft 216 kts 273°
2026-05-08 23:41 39.99930 -82.98069 2704 ft 239 kts 290°
2026-05-08 23:41 40.00954 -82.99840 3301 ft 255 kts 319°
2026-05-08 23:42 40.02605 -83.00795 4064 ft 267 kts 344°
2026-05-08 23:42 40.04475 -83.01090 4902 ft 275 kts 351°
2026-05-08 23:42 40.06417 -83.01204 5696 ft 282 kts 352°
2026-05-08 23:42 40.08407 -83.01111 6514 ft 291 kts
2026-05-08 23:43 40.10354 -83.00242 7271 ft 304 kts 28°
2026-05-08 23:43 40.11861 -82.98290 8031 ft 311 kts 60°
2026-05-08 23:43 40.12559 -82.95653 8781 ft 313 kts 82°
2026-05-08 23:43 40.12730 -82.92772 9546 ft 315 kts 93°
2026-05-08 23:44 40.12617 -82.89893 10225 ft 321 kts 97°
2026-05-08 23:44 40.12393 -82.86945 10541 ft 341 kts 98°
2026-05-08 23:44 40.12140 -82.83765 10801 ft 362 kts 97°
2026-05-08 23:44 40.11913 -82.80398 11080 ft 381 kts 96°
2026-05-08 23:45 40.11730 -82.76909 11590 ft 391 kts 95°
2026-05-08 23:45 40.11584 -82.73340 12280 ft 396 kts 94°
2026-05-08 23:45 40.11458 -82.69722 12887 ft 403 kts 93°
2026-05-08 23:45 40.11340 -82.66038 13532 ft 409 kts 92°
2026-05-08 23:46 40.11222 -82.62299 14129 ft 415 kts 92°
2026-05-08 23:46 40.11099 -82.58510 14729 ft 419 kts 92°
2026-05-08 23:46 40.10971 -82.54678 15314 ft 424 kts 92°
2026-05-08 23:46 40.10884 -82.52116 15712 ft 427 kts 92°
2026-05-08 23:47 40.10701 -82.46940 16457 ft 434 kts 92°
2026-05-08 23:47 40.10560 -82.43009 17019 ft 438 kts 92°
2026-05-08 23:47 40.10414 -82.38999 17566 ft 443 kts 92°
2026-05-08 23:47 40.10265 -82.34942 17991 ft 451 kts 92°
2026-05-08 23:48 40.10165 -82.32229 18312 ft 454 kts 92°
2026-05-08 23:48 40.10010 -82.28072 18781 ft 458 kts 92°
2026-05-08 23:48 40.09854 -82.23908 19269 ft 461 kts 92°
2026-05-08 23:48 40.09694 -82.19705 19736 ft 465 kts 92°
2026-05-08 23:49 40.09531 -82.15464 20196 ft 468 kts 92°
2026-05-08 23:49 40.09366 -82.11192 20645 ft 472 kts 92°
2026-05-08 23:49 40.09198 -82.06890 21097 ft 476 kts 92°
2026-05-08 23:49 40.09029 -82.02609 21531 ft 479 kts 93°
2026-05-08 23:50 40.08856 -81.98246 21976 ft 483 kts 92°
2026-05-08 23:50 40.08680 -81.93861 22431 ft 486 kts 93°
2026-05-08 23:50 40.08500 -81.89424 22872 ft 490 kts 93°
2026-05-08 23:50 40.08317 -81.84960 23282 ft 493 kts 93°
2026-05-08 23:51 40.08131 -81.80466 23652 ft 497 kts 93°
2026-05-08 23:51 40.07942 -81.75937 23968 ft 500 kts 93°
2026-05-08 23:51 40.07794 -81.71376 24292 ft 504 kts 88°
2026-05-08 23:51 40.08114 -81.66883 24603 ft 505 kts 79°
2026-05-08 23:52 40.08766 -81.62363 24877 ft 508 kts 75°
2026-05-08 23:52 40.09572 -81.57856 25159 ft 510 kts 73°
2026-05-08 23:52 40.10424 -81.53349 25485 ft 513 kts 73°
2026-05-08 23:52 40.11271 -81.48797 25775 ft 517 kts 73°
2026-05-08 23:53 40.12089 -81.44219 26064 ft 520 kts 74°
2026-05-08 23:53 40.12883 -81.39583 26334 ft 523 kts 75°
2026-05-08 23:53 40.13656 -81.34924 26610 ft 526 kts 75°
2026-05-08 23:53 40.14405 -81.30312 26880 ft 529 kts 75°
2026-05-08 23:54 40.15176 -81.25507 27216 ft 531 kts 75°
2026-05-08 23:54 40.15932 -81.20774 27515 ft 533 kts 75°
2026-05-08 23:54 40.16692 -81.16011 27823 ft 535 kts 75°
2026-05-08 23:55 40.18201 -81.06527 28544 ft 535 kts 75°
2026-05-08 23:55 40.18956 -81.01773 28884 ft 535 kts 75°
2026-05-08 23:55 40.19712 -80.97007 29234 ft 535 kts 75°
2026-05-08 23:55 40.20466 -80.92240 29565 ft 535 kts 75°
2026-05-08 23:56 40.21221 -80.87465 29813 ft 537 kts 75°
2026-05-08 23:56 40.21978 -80.82661 30002 ft 539 kts 75°
2026-05-08 23:56 40.22728 -80.77887 30232 ft 540 kts 76°
2026-05-08 23:56 40.23481 -80.73070 30473 ft 541 kts 76°
2026-05-08 23:57 40.24235 -80.68229 30668 ft 543 kts 76°
2026-05-08 23:57 40.24987 -80.63393 30880 ft 544 kts 76°
2026-05-08 23:57 40.25740 -80.58520 31085 ft 545 kts 75°
2026-05-08 23:57 40.26859 -80.53809 31244 ft 538 kts 59°
2026-05-08 23:58 40.28675 -80.49570 31404 ft 531 kts 49°
2026-05-08 23:58 40.30784 -80.45635 31619 ft 527 kts 46°
2026-05-08 23:58 40.32989 -80.41783 31803 ft 527 kts 45°
2026-05-08 23:58 40.35160 -80.37960 32010 ft 529 kts 46°
2026-05-08 23:59 40.37308 -80.34036 32203 ft 531 kts 47°
2026-05-08 23:59 40.39407 -80.30049 32372 ft 533 kts 48°
2026-05-08 23:59 40.41477 -80.25995 32536 ft 535 kts 49°
2026-05-08 23:59 40.43523 -80.21905 32716 ft 536 kts 50°
2026-05-09 00:00 40.45557 -80.17799 32883 ft 537 kts 50°
2026-05-09 00:00 40.47597 -80.13660 33066 ft 537 kts 50°
2026-05-09 00:00 40.49625 -80.09543 33312 ft 538 kts 49°
2026-05-09 00:00 40.51662 -80.05412 33433 ft 539 kts 49°
2026-05-09 00:01 40.53706 -80.01268 33580 ft 540 kts 49°
2026-05-09 00:01 40.55747 -79.97128 33760 ft 541 kts 49°
2026-05-09 00:01 40.57801 -79.92959 33923 ft 541 kts 49°
2026-05-09 00:01 40.59852 -79.88790 34046 ft 542 kts 49°
2026-05-09 00:02 40.61878 -79.84669 34183 ft 542 kts 50°
2026-05-09 00:02 40.63922 -79.80502 34350 ft 541 kts 50°
2026-05-09 00:02 40.65963 -79.76337 34525 ft 540 kts 49°
2026-05-09 00:02 40.67997 -79.72180 34746 ft 539 kts 50°
2026-05-09 00:03 40.70030 -79.68019 34899 ft 539 kts 50°
2026-05-09 00:03 40.74103 -79.59674 34960 ft 541 kts 50°
2026-05-09 00:04 40.78169 -79.51318 34962 ft 541 kts 50°
2026-05-09 00:04 40.82200 -79.43012 34958 ft 540 kts 50°
2026-05-09 00:05 40.86253 -79.34632 35001 ft 540 kts 50°
2026-05-09 00:05 40.90296 -79.26252 34948 ft 540 kts 50°
2026-05-09 00:06 40.94328 -79.17876 34944 ft 540 kts 50°
2026-05-09 00:06 40.98329 -79.09542 34938 ft 540 kts 50°
2026-05-09 00:07 41.02353 -79.01136 34936 ft 540 kts 50°
2026-05-09 00:07 41.06362 -78.92738 34941 ft 539 kts 51°
2026-05-09 00:08 41.10361 -78.84337 34932 ft 538 kts 51°
2026-05-09 00:08 41.14354 -78.75927 34929 ft 538 kts 51°
2026-05-09 00:09 41.18339 -78.67510 34925 ft 538 kts 51°
2026-05-09 00:09 41.22315 -78.59089 34961 ft 538 kts 51°
2026-05-09 00:10 41.26248 -78.50732 34932 ft 535 kts 51°
2026-05-09 00:10 41.30186 -78.42341 34929 ft 534 kts 51°
2026-05-09 00:11 41.34119 -78.33946 34937 ft 534 kts 51°
2026-05-09 00:11 41.38041 -78.25551 34937 ft 534 kts 51°
2026-05-09 00:12 41.41931 -78.17189 34941 ft 524 kts 51°
2026-05-09 00:12 41.45746 -78.08966 34939 ft 522 kts 51°
2026-05-09 00:13 41.49550 -78.00768 34941 ft 522 kts 51°
2026-05-09 00:13 41.53142 -77.92300 34931 ft 527 kts 57°
2026-05-09 00:14 41.56356 -77.83411 34964 ft 533 kts 59°
2026-05-09 00:14 41.59467 -77.74519 34934 ft 526 kts 59°
2026-05-09 00:15 41.62568 -77.65752 34928 ft 524 kts 59°
2026-05-09 00:15 41.65717 -77.56951 34929 ft 525 kts 58°
2026-05-09 00:16 41.68875 -77.48146 34930 ft 527 kts 59°
2026-05-09 00:16 41.72033 -77.39304 34964 ft 526 kts 59°
2026-05-09 00:17 41.75151 -77.30519 34927 ft 519 kts 59°
2026-05-09 00:17 41.78246 -77.21778 34908 ft 519 kts 59°
2026-05-09 00:18 41.81328 -77.13058 34916 ft 522 kts 59°
2026-05-09 00:18 41.84440 -77.04228 34915 ft 523 kts 59°
2026-05-09 00:19 41.87529 -76.95423 34950 ft 523 kts 59°
2026-05-09 00:19 41.90601 -76.86630 34914 ft 518 kts 59°
2026-05-09 00:20 41.93661 -76.77856 34923 ft 518 kts 59°
2026-05-09 00:20 41.96720 -76.69057 34922 ft 519 kts 60°
2026-05-09 00:21 41.99766 -76.60270 34927 ft 519 kts 60°
2026-05-09 00:21 42.02788 -76.51524 34926 ft 519 kts 60°
2026-05-09 00:22 42.05821 -76.42711 34928 ft 519 kts 60°
2026-05-09 00:22 42.08848 -76.33892 34928 ft 519 kts 60°
2026-05-09 00:23 42.11873 -76.25050 34930 ft 519 kts 60°
2026-05-09 00:23 42.14887 -76.16212 34931 ft 519 kts 60°
2026-05-09 00:24 42.17910 -76.07436 34946 ft 519 kts 60°
2026-05-09 00:24 42.20976 -75.98652 34913 ft 516 kts 60°
2026-05-09 00:25 42.24025 -75.89905 34944 ft 515 kts 60°
2026-05-09 00:25 42.27066 -75.81140 34938 ft 515 kts 60°
2026-05-09 00:26 42.30095 -75.72369 34941 ft 515 kts 60°
2026-05-09 00:26 42.33117 -75.63584 34960 ft 514 kts 60°
2026-05-09 00:27 42.36119 -75.54827 34941 ft 513 kts 60°
2026-05-09 00:27 42.39108 -75.46083 34940 ft 512 kts 60°
2026-05-09 00:28 42.42075 -75.37381 34944 ft 513 kts 60°
2026-05-09 00:28 42.45060 -75.28599 34945 ft 513 kts 60°
2026-05-09 00:29 42.47553 -75.19523 34972 ft 516 kts 70°
2026-05-09 00:29 42.49463 -75.10150 34957 ft 516 kts 71°
2026-05-09 00:30 42.51342 -75.00767 34967 ft 515 kts 71°
2026-05-09 00:30 42.53210 -74.91447 34967 ft 516 kts 71°
2026-05-09 00:31 42.55086 -74.82064 34967 ft 516 kts 71°
2026-05-09 00:31 42.56948 -74.72715 34964 ft 516 kts 72°
2026-05-09 00:32 42.58813 -74.63309 34969 ft 516 kts 72°
2026-05-09 00:32 42.60668 -74.53909 34966 ft 514 kts 72°
2026-05-09 00:33 42.62501 -74.44576 34969 ft 514 kts 72°
2026-05-09 00:33 42.64337 -74.35185 34969 ft 514 kts 72°
2026-05-09 00:34 42.66172 -74.25759 34967 ft 518 kts 72°
2026-05-09 00:34 42.67999 -74.16323 34969 ft 519 kts 72°
2026-05-09 00:35 42.69829 -74.06825 34946 ft 519 kts 72°
2026-05-09 00:35 42.70737 -74.02093 34455 ft 517 kts 72°
2026-05-09 00:35 42.71351 -73.98887 34025 ft 517 kts 72°
2026-05-09 00:35 42.72545 -73.92638 33169 ft 516 kts 72°
2026-05-09 00:36 42.73143 -73.89499 32997 ft 516 kts 72°
2026-05-09 00:36 42.74882 -73.79994 32938 ft 519 kts 81°
2026-05-09 00:37 42.74874 -73.70167 32949 ft 519 kts 91°
2026-05-09 00:37 42.74737 -73.65264 32767 ft 517 kts 91°
2026-05-09 00:37 42.74633 -73.60361 31962 ft 519 kts 90°
2026-05-09 00:37 42.74559 -73.55510 31311 ft 519 kts 89°
2026-05-09 00:38 42.74499 -73.50591 31012 ft 522 kts 89°
2026-05-09 00:38 42.74394 -73.40672 30948 ft 525 kts 89°
2026-05-09 00:39 42.74293 -73.30725 30942 ft 525 kts 89°
2026-05-09 00:39 42.74186 -73.20782 30937 ft 525 kts 89°
2026-05-09 00:40 42.74025 -73.10851 30957 ft 525 kts 96°
2026-05-09 00:40 42.72939 -73.01032 30977 ft 525 kts 99°
2026-05-09 00:41 42.71771 -72.91289 30303 ft 516 kts 98°
2026-05-09 00:41 42.71208 -72.86541 29654 ft 503 kts 98°
2026-05-09 00:41 42.70661 -72.81912 28586 ft 500 kts 98°
2026-05-09 00:41 42.70114 -72.77274 27719 ft 492 kts 98°
2026-05-09 00:42 42.69578 -72.72739 27005 ft 482 kts 98°
2026-05-09 00:42 42.69053 -72.68304 26400 ft 470 kts 98°
2026-05-09 00:42 42.68537 -72.63964 25685 ft 461 kts 98°
2026-05-09 00:42 42.68018 -72.59647 24601 ft 464 kts 98°
2026-05-09 00:43 42.67493 -72.55309 23670 ft 463 kts 98°
2026-05-09 00:43 42.66970 -72.51018 22756 ft 457 kts 98°
2026-05-09 00:43 42.66453 -72.46781 21863 ft 450 kts 98°
2026-05-09 00:43 42.65943 -72.42616 21267 ft 447 kts 98°
2026-05-09 00:44 42.65439 -72.38503 21022 ft 446 kts 98°
2026-05-09 00:44 42.64932 -72.34387 20419 ft 437 kts 98°
2026-05-09 00:44 42.64442 -72.30337 19589 ft 431 kts 98°
2026-05-09 00:44 42.63977 -72.26340 18762 ft 426 kts 98°
2026-05-09 00:45 42.63519 -72.22391 17987 ft 418 kts 98°
2026-05-09 00:45 42.63070 -72.18524 17313 ft 412 kts 98°
2026-05-09 00:45 42.62622 -72.14678 17047 ft 412 kts 98°
2026-05-09 00:45 42.62173 -72.10838 16989 ft 409 kts 98°
2026-05-09 00:46 42.61730 -72.07070 16394 ft 400 kts 98°
2026-05-09 00:46 42.61288 -72.03362 15498 ft 396 kts 98°
2026-05-09 00:46 42.60837 -71.99686 14711 ft 392 kts 99°
2026-05-09 00:46 42.60386 -71.96040 14214 ft 390 kts 99°
2026-05-09 00:47 42.59938 -71.92438 13977 ft 385 kts 99°
2026-05-09 00:47 42.59499 -71.88913 13478 ft 381 kts 99°
2026-05-09 00:47 42.59055 -71.85354 12984 ft 376 kts 99°
2026-05-09 00:47 42.58609 -71.81923 12488 ft 371 kts 101°
2026-05-09 00:48 42.58092 -71.78504 11968 ft 367 kts 102°
2026-05-09 00:48 42.57561 -71.75135 11460 ft 364 kts 102°
2026-05-09 00:48 42.57029 -71.71789 11090 ft 359 kts 102°
2026-05-09 00:48 42.56511 -71.68526 11012 ft 348 kts 102°
2026-05-09 00:49 42.56006 -71.65351 10983 ft 341 kts 102°
2026-05-09 00:49 42.55510 -71.62229 10577 ft 338 kts 103°
2026-05-09 00:49 42.54992 -71.59130 10115 ft 335 kts 105°
2026-05-09 00:49 42.54390 -71.56081 9666 ft 332 kts 107°
2026-05-09 00:50 42.53770 -71.53084 9138 ft 329 kts 107°
2026-05-09 00:50 42.53149 -71.50106 8622 ft 326 kts 107°
2026-05-09 00:50 42.52543 -71.47200 8182 ft 322 kts 107°
2026-05-09 00:50 42.51940 -71.44303 8005 ft 314 kts 107°
2026-05-09 00:51 42.51361 -71.41523 7993 ft 300 kts 107°
2026-05-09 00:51 42.50796 -71.38813 7991 ft 298 kts 107°
2026-05-09 00:51 42.50237 -71.36100 7845 ft 299 kts 106°
2026-05-09 00:51 42.49692 -71.33384 7394 ft 298 kts 106°
2026-05-09 00:52 42.49155 -71.30694 7063 ft 293 kts 106°
2026-05-09 00:52 42.48623 -71.28031 6991 ft 293 kts 106°
2026-05-09 00:52 42.48090 -71.25362 6990 ft 294 kts 106°
2026-05-09 00:52 42.47555 -71.22692 7013 ft 294 kts 106°
2026-05-09 00:53 42.47023 -71.20041 7005 ft 285 kts 106°
2026-05-09 00:53 42.46523 -71.17543 7048 ft 264 kts 106°
2026-05-09 00:53 42.46110 -71.15151 7010 ft 261 kts 100°
2026-05-09 00:53 42.45853 -71.12716 7003 ft 261 kts 97°
2026-05-09 00:54 42.45632 -71.10266 7000 ft 262 kts 97°
2026-05-09 00:54 42.45415 -71.07819 6998 ft 262 kts 97°
2026-05-09 00:54 42.45197 -71.05376 6772 ft 262 kts 97°
2026-05-09 00:54 42.44960 -71.02932 6349 ft 260 kts 99°
2026-05-09 00:55 42.44669 -71.00532 5921 ft 257 kts 100°
2026-05-09 00:55 42.44365 -70.98190 5489 ft 254 kts 100°
2026-05-09 00:55 42.44225 -70.95825 5059 ft 251 kts 85°
2026-05-09 00:55 42.44474 -70.93498 4631 ft 248 kts 77°
2026-05-09 00:56 42.44823 -70.91219 4217 ft 246 kts 76°
2026-05-09 00:56 42.45182 -70.88963 4017 ft 244 kts 76°
2026-05-09 00:56 42.45530 -70.86752 3989 ft 236 kts 76°
2026-05-09 00:56 42.45867 -70.84592 3984 ft 234 kts 76°
2026-05-09 00:57 42.46201 -70.82434 3630 ft 234 kts 76°
2026-05-09 00:57 42.46532 -70.80286 3255 ft 232 kts 76°
2026-05-09 00:57 42.46828 -70.78149 3015 ft 230 kts 84°
2026-05-09 00:57 42.46548 -70.76060 2990 ft 231 kts 118°
2026-05-09 00:58 42.45482 -70.74474 2991 ft 228 kts 151°
2026-05-09 00:58 42.44036 -70.73629 2991 ft 225 kts 170°
2026-05-09 00:58 42.42559 -70.73718 2982 ft 204 kts 206°
2026-05-09 00:58 42.41388 -70.74693 3012 ft 196 kts 223°
2026-05-09 00:59 42.40422 -70.75975 2994 ft 192 kts 238°
2026-05-09 00:59 42.39839 -70.77481 3019 ft 171 kts 253°
2026-05-09 00:59 42.39523 -70.78962 2992 ft 164 kts 258°
2026-05-09 00:59 42.39251 -70.80462 2792 ft 164 kts 258°
2026-05-09 01:00 42.38985 -70.81960 2537 ft 163 kts 259°
2026-05-09 01:00 42.38722 -70.83448 2322 ft 162 kts 258°
2026-05-09 01:00 42.38457 -70.84942 2082 ft 162 kts 258°
2026-05-09 01:00 42.38196 -70.86419 1867 ft 160 kts 259°
2026-05-09 01:01 42.37949 -70.87820 1672 ft 145 kts 258°
2026-05-09 01:01 42.37725 -70.89088 1444 ft 135 kts 259°
2026-05-09 01:01 42.37512 -70.90322 1290 ft 135 kts 258°
2026-05-09 01:01 42.37290 -70.91553 1136 ft 135 kts 258°
2026-05-09 01:02 42.37071 -70.92787 941 ft 134 kts 258°
2026-05-09 01:02 42.36874 -70.94018 758 ft 134 kts 257°
2026-05-09 01:02 42.36664 -70.95218 597 ft 133 kts 255°
2026-05-09 01:02 42.36438 -70.96430 419 ft 133 kts 255°
2026-05-09 01:03 42.36224 -70.97641 224 ft 132 kts 256°
2026-05-09 01:03 42.36011 -70.98844 57 ft 132 kts 255°
2026-05-09 01:03 42.35819 -70.99926 34 ft 95 kts 256°
2026-05-09 01:03 42.35705 -71.00558 27 ft 44 kts 258°
2026-05-09 01:04 42.35643 -71.00920 28 ft 38 kts 257°
2026-05-09 01:04 42.35687 -71.01203 28 ft 22 kts 308°
2026-05-09 01:04 42.35703 -71.01228 28 ft 0 kts 311°
2026-05-09 01:05 42.35705 -71.01231 28 ft 1 kts 311°
2026-05-09 01:05 42.35712 -71.01241 28 ft 5 kts 310°
2026-05-09 01:05 42.35747 -71.01328 30 ft 0 kts 290°
2026-05-09 01:06 42.35762 -71.01385 32 ft 12 kts 290°
2026-05-09 01:07 42.35795 -71.01508 34 ft 14 kts 291°
2026-05-09 01:07 42.35857 -71.01558 33 ft 11 kts 11°
2026-05-09 01:07 42.35943 -71.01522 32 ft 15 kts 19°
2026-05-09 01:07 42.36042 -71.01474 32 ft 15 kts 19°
2026-05-09 01:08 42.36142 -71.01425 31 ft 16 kts 20°
2026-05-09 01:08 42.36265 -71.01366 27 ft 21 kts 19°
2026-05-09 01:08 42.36404 -71.01299 28 ft 21 kts 20°
2026-05-09 01:08 42.36545 -71.01230 28 ft 21 kts 20°
2026-05-09 01:09 42.36663 -71.01199 31 ft 12 kts 330°
2026-05-09 01:09 42.36698 -71.01302 28 ft 14 kts 288°
2026-05-09 01:09 42.36699 -71.01425 27 ft 5 kts 265°
2026-05-09 01:09 42.36707 -71.01463 26 ft 3 kts 330°
2026-05-09 01:10 42.36731 -71.01481 27 ft 4 kts 334°
2026-05-09 01:10 42.36736 -71.01484 28 ft 0 kts 332°